Regional Weather Roundup
Issued by NWS Goodland, KS

Home | Current Version | Previous Version | Text Only | Print | Product List | Glossary Off
Versions: 1 2 3 4 5 6 7 8 9 10 11 12 13 14 15 16 17 18 19 20 21 22 23 24 25 26 27 28 29 30 31 32 33 34 35 36 37 38 39 40 41 42 43 44 45 46 47 48 49 50

000
ASUS43 KGLD 180959
RWRGLD

GOODLAND FORECAST AREA HOURLY WEATHER ROUNDUP
NATIONAL WEATHER SERVICE GOODLAND KS
300 AM MST WED JAN 18 2017

...OFFICIAL OBSERVATIONS...

CITY           SKY/WX    TMP DP  RH WIND       PRES   REMARKS
GOODLAND KS    CLEAR     30  28  92 SW7       29.98F
HILL CITY KS   CLOUDY    34  30  85 W6        30.04F
IMPERIAL NEB   CLOUDY    26  22  84 W9        29.97F
MCCOOK NEB     CLEAR     26  26 100 SW7       30.01F
AKRON CO       CLOUDY    25  16  68 W12       29.95F WCI  14
BURLINGTON CO  CLOUDY    28  24  85 SW10      29.98F WCI  19
LIMON CO       CLOUDY    12  10  92 N3        29.96F
$$

...UNOFFICIAL OBSERVATIONS...

CITY           SKY/WX    TMP DP  RH WIND       PRES   REMARKS
LENORA KS        N/A     32  32 100 SW7         N/A
NORTON KS      CLEAR     28  25  86 SW6       30.03
SHARON SPRINGS   N/A     31  29  91 S7          N/A
TRENTON NEB      N/A     28  32 100 CALM        N/A
KIT CARSON CO    N/A     23  21  91 CALM        N/A
YUMA CO        FAIR      12  10  92 W13       29.96F WCI  -3
$$




USA.gov is the U.S. government's official web portal to all federal, state and local government web resources and services.